�������l�o���
Date,Time,MP-1(��Sv/h),MP-2(��Sv/h),MP-3(��Sv/h),MP-4(��Sv/h),MP-5(��Sv/h),MP-6(��Sv/h),MP-7(��Sv/h),MP-8(��Sv/h),����,����(m/s),���J
2022/11/14,00:00,0.598,0.863,0.537,1.083,0.761,0.342,0.600,0.566,���k��,12.7,��
2022/11/14,00:10,0.596,0.861,0.539,1.081,0.757,0.341,0.601,0.568,���k��,10.3,��
2022/11/14,00:20,0.595,0.861,0.537,1.083,0.757,0.343,0.601,0.568,�k��,13.1,��
2022/11/14,00:30,0.597,0.860,0.539,1.083,0.758,0.341,0.600,0.566,�k��,8.6,��
2022/11/14,00:40,0.597,0.863,0.537,1.083,0.758,0.342,0.600,0.568,�k�k��,8.5,��
2022/11/14,00:50,0.598,0.861,0.538,1.082,0.759,0.343,0.601,0.570,�k��,7.7,��
2022/11/14,01:00,0.598,0.862,0.537,1.081,0.758,0.341,0.602,0.571,�k��,9.8,��
2022/11/14,01:10,0.599,0.860,0.539,1.082,0.759,0.343,0.600,0.571,�k��,13.1,��
2022/11/14,01:20,0.598,0.859,0.539,1.083,0.760,0.342,0.603,0.569,�k��,10.6,��
2022/11/14,01:30,0.597,0.863,0.538,1.085,0.762,0.343,0.601,0.570,���k��,9.4,��
2022/11/14,01:40,0.597,0.860,0.538,1.082,0.761,0.343,0.599,0.570,�k��,8.2,��
2022/11/14,01:50,0.598,0.859,0.539,1.082,0.761,0.343,0.601,0.570,�k��,8.2,��
2022/11/14,02:00,0.598,0.860,0.539,1.082,0.759,0.342,0.602,0.569,�k��,6.5,��
2022/11/14,02:10,0.597,0.861,0.538,1.083,0.757,0.343,0.601,0.570,���k��,7.5,��
2022/11/14,02:20,0.597,0.861,0.538,1.084,0.760,0.343,0.602,0.572,�k��,8.5,��
2022/11/14,02:30,0.597,0.862,0.538,1.082,0.759,0.343,0.601,0.570,�k��,9.7,��
2022/11/14,02:40,0.596,0.861,0.537,1.082,0.759,0.343,0.601,0.571,���k��,7.3,��
2022/11/14,02:50,0.597,0.861,0.538,1.083,0.762,0.342,0.600,0.569,�k��,9.4,��
2022/11/14,03:00,0.598,0.860,0.537,1.082,0.760,0.343,0.600,0.569,�k��,11.4,��
2022/11/14,03:10,0.596,0.860,0.537,1.082,0.761,0.342,0.601,0.571,�k��,9.3,��
2022/11/14,03:20,0.597,0.860,0.537,1.084,0.763,0.342,0.602,0.570,���k��,3.9,��
2022/11/14,03:30,0.597,0.862,0.538,1.081,0.759,0.343,0.600,0.569,�k��,6.4,��
2022/11/14,03:40,0.596,0.860,0.539,1.080,0.761,0.342,0.600,0.569,�k��,11.1,��
2022/11/14,03:50,0.596,0.863,0.536,1.081,0.759,0.342,0.600,0.570,�k��,13.1,��
2022/11/14,04:00,0.597,0.861,0.537,1.082,0.762,0.344,0.601,0.571,�k��,14.9,��
2022/11/14,04:10,0.597,0.857,0.538,1.081,0.760,0.342,0.601,0.571,�k�k��,13.3,��
2022/11/14,04:20,0.596,0.861,0.538,1.081,0.762,0.342,0.599,0.570,�k��,15.2,��
2022/11/14,04:30,0.599,0.859,0.538,1.082,0.762,0.343,0.599,0.569,�k�k��,10.2,��
2022/11/14,04:40,0.598,0.859,0.536,1.081,0.763,0.342,0.602,0.570,�k�k��,11.8,��
2022/11/14,04:50,0.597,0.860,0.538,1.080,0.761,0.342,0.599,0.570,�k�k��,8.4,��
2022/11/14,05:00,0.596,0.862,0.538,1.082,0.760,0.341,0.599,0.569,�k��,11.4,��
2022/11/14,05:10,0.596,0.860,0.538,1.080,0.759,0.341,0.600,0.568,�k��,13.0,��
2022/11/14,05:20,0.596,0.860,0.537,1.080,0.759,0.343,0.599,0.568,�k��,10.5,��
2022/11/14,05:30,0.596,0.860,0.538,1.084,0.760,0.341,0.598,0.567,�k��,8.8,��
2022/11/14,05:40,0.596,0.860,0.537,1.080,0.760,0.341,0.600,0.569,�k�k��,7.6,��
2022/11/14,05:50,0.595,0.859,0.535,1.080,0.760,0.340,0.599,0.568,�k�k��,6.4,��
2022/11/14,06:00,0.595,0.860,0.536,1.080,0.760,0.341,0.597,0.568,�k�k��,6.5,��
2022/11/14,06:10,0.596,0.859,0.535,1.081,0.760,0.341,0.600,0.568,�k�k��,7.7,��
2022/11/14,06:20,0.596,0.860,0.535,1.083,0.759,0.340,0.599,0.568,�k�k��,9.1,��
2022/11/14,06:30,0.595,0.860,0.537,1.080,0.760,0.341,0.600,0.566,�k�k��,7.8,��
2022/11/14,06:40,0.593,0.860,0.534,1.081,0.759,0.342,0.600,0.569,�k�k��,8.6,��
2022/11/14,06:50,0.594,0.859,0.537,1.082,0.760,0.341,0.600,0.568,�k��,8.2,��
2022/11/14,07:00,0.596,0.860,0.535,1.079,0.760,0.341,0.600,0.567,�k��,10.6,��
2022/11/14,07:10,0.595,0.859,0.537,1.081,0.759,0.341,0.600,0.568,�k��,11.6,��
2022/11/14,07:20,0.595,0.860,0.537,1.083,0.760,0.340,0.601,0.568,�k�k��,9.4,��
2022/11/14,07:30,0.595,0.861,0.537,1.082,0.759,0.340,0.599,0.568,�k�k��,9.1,��
2022/11/14,07:40,0.594,0.859,0.536,1.082,0.760,0.341,0.600,0.568,�k�k��,8.5,��
2022/11/14,07:50,0.593,0.859,0.535,1.079,0.759,0.341,0.599,0.568,�k�k��,6.9,��
2022/11/14,08:00,0.593,0.859,0.536,1.081,0.761,0.341,0.601,0.565,�k,7.6,��
2022/11/14,08:10,0.594,0.860,0.536,1.084,0.759,0.340,0.599,0.567,�k,7.2,��
2022/11/14,08:20,0.595,0.859,0.536,1.081,0.759,0.340,0.600,0.566,�k,7.2,��
2022/11/14,08:30,0.595,0.856,0.535,1.083,0.761,0.340,0.600,0.567,�k�k��,7.5,��
2022/11/14,08:40,0.593,0.856,0.534,1.083,0.758,0.341,0.599,0.567,�k,7.4,��
2022/11/14,08:50,0.594,0.853,0.535,1.082,0.758,0.339,0.599,0.567,�k,6.0,��
2022/11/14,09:00,0.593,0.855,0.535,1.084,0.757,0.340,0.598,0.567,�k,8.0,��
2022/11/14,09:10,0.595,0.856,0.534,1.082,0.760,0.339,0.599,0.567,�k,7.3,��
2022/11/14,09:20,0.596,0.856,0.538,1.082,0.760,0.341,0.598,0.565,�k,6.5,��
2022/11/14,09:30,0.595,0.854,0.536,1.082,0.760,0.341,0.601,0.568,�k,7.4,��
2022/11/14,09:40,0.594,0.854,0.537,1.083,0.759,0.340,0.599,0.566,�k�k��,8.3,��
2022/11/14,09:50,0.594,0.853,0.536,1.084,0.760,0.341,0.597,0.565,�k�k��,7.1,��
2022/11/14,10:00,0.594,0.854,0.535,1.082,0.759,0.341,0.600,0.566,�k�k��,7.3,��
2022/11/14,10:10,0.595,0.856,0.535,1.082,0.757,0.340,0.599,0.565,�k�k��,7.4,��
2022/11/14,10:20,0.595,0.855,0.535,1.080,0.758,0.339,0.599,0.566,�k�k��,5.5,��
2022/11/14,10:30,0.594,0.856,0.537,1.084,0.757,0.339,0.598,0.565,�k,6.7,��
2022/11/14,10:40,0.593,0.856,0.535,1.083,0.757,0.339,0.598,0.566,�k,7.1,��
2022/11/14,10:50,0.593,0.856,0.534,1.081,0.758,0.340,-,0.566,�k,7.2,��
2022/11/14,11:00,0.595,0.854,0.535,1.081,0.757,0.340,-,0.565,�k,8.0,��
2022/11/14,11:10,0.592,0.853,0.535,1.082,0.760,0.339,-,0.566,�k,6.7,��
2022/11/14,11:20,0.593,0.855,0.533,1.083,0.757,0.338,-,0.566,�k,7.8,��
2022/11/14,11:30,0.594,0.854,0.534,1.084,0.757,0.339,-,0.566,�k�k��,7.2,��
2022/11/14,11:40,0.593,0.855,0.534,1.083,0.758,0.339,-,0.565,�k�k��,7.7,��
2022/11/14,11:50,0.593,0.857,0.535,1.082,0.756,0.340,-,0.566,�k�k��,9.2,��
2022/11/14,12:00,0.594,0.857,0.535,1.081,0.757,0.339,-,0.565,�k�k��,8.9,��
2022/11/14,12:10,0.595,0.858,0.535,1.083,0.756,0.340,-,0.565,�k�k��,8.2,��
2022/11/14,12:20,0.592,0.857,0.534,1.083,0.758,0.340,-,0.562,�k�k��,9.0,��
2022/11/14,12:30,0.592,0.856,0.534,1.081,0.759,0.341,0.598,0.563,�k,9.3,��
2022/11/14,12:40,0.594,0.859,0.534,1.083,0.759,0.340,0.598,0.564,�k�k��,9.0,��
2022/11/14,12:50,0.594,0.857,0.534,1.084,0.759,0.342,0.600,0.563,�k�k��,9.3,��
2022/11/14,13:00,0.595,0.858,0.535,1.081,0.759,0.340,0.599,0.565,�k�k��,8.3,��
2022/11/14,13:10,0.592,0.854,0.535,1.082,0.758,0.340,0.600,0.564,�k�k��,7.9,��
2022/11/14,13:20,0.593,0.855,0.536,1.083,0.759,0.340,0.601,0.565,�k�k��,8.5,��
2022/11/14,13:30,0.593,0.857,0.535,1.083,0.758,0.340,0.600,0.566,�k�k��,8.8,��
2022/11/14,13:40,0.594,0.852,0.536,1.083,0.759,0.340,0.600,0.565,�k�k��,8.7,��
2022/11/14,13:50,0.594,0.855,0.535,1.083,0.758,0.341,0.599,0.565,�k�k��,8.5,��
2022/11/14,14:00,0.594,0.857,0.536,1.082,0.759,0.341,0.600,0.565,�k�k��,8.1,��
2022/11/14,14:10,0.594,0.854,0.535,1.082,0.757,0.340,0.599,0.564,�k�k��,8.4,��
2022/11/14,14:20,0.594,0.856,0.534,1.081,0.756,0.341,0.601,0.564,�k�k��,7.9,��
2022/11/14,14:30,0.593,0.854,0.534,1.081,0.759,0.340,0.600,0.565,�k�k��,6.9,��
2022/11/14,14:40,0.594,0.856,0.533,1.084,0.759,0.340,0.600,0.563,�k�k��,7.2,��
2022/11/14,14:50,0.594,0.856,0.534,1.082,0.757,0.341,0.600,0.563,�k�k��,6.6,��
2022/11/14,15:00,0.594,0.859,0.536,1.083,0.759,0.340,0.599,0.564,�k,6.1,��
2022/11/14,15:10,0.595,0.856,0.537,1.084,0.760,0.340,0.600,0.565,�k,6.2,��
2022/11/14,15:20,0.595,0.858,0.536,1.080,0.758,0.340,0.600,0.564,�k,5.9,��
2022/11/14,15:30,0.597,0.859,0.537,1.083,0.758,0.340,0.600,0.566,�k,4.6,��
2022/11/14,15:40,0.596,0.860,0.537,1.082,0.759,0.342,0.600,0.568,�k,4.0,��
2022/11/14,15:50,0.599,0.862,0.537,1.083,0.760,0.342,0.599,0.567,�k,3.9,��
2022/11/14,16:00,0.600,0.861,0.537,1.083,0.760,0.339,0.600,0.567,�k,4.2,��
2022/11/14,16:10,0.602,0.862,0.535,1.083,0.760,0.341,0.601,0.567,�k�k��,4.3,��
2022/11/14,16:20,0.596,0.862,0.539,1.083,0.760,0.340,0.599,0.567,�k,3.7,��
2022/11/14,16:30,0.594,0.863,0.538,1.083,0.761,0.340,0.599,0.568,�k,3.3,��
2022/11/14,16:40,0.593,0.861,0.538,1.083,0.760,0.342,0.600,0.566,�k,4.0,��
2022/11/14,16:50,0.594,0.860,0.536,1.082,0.761,0.341,0.601,0.567,�k,4.0,��
2022/11/14,17:00,0.594,0.861,0.537,1.081,0.760,0.340,0.600,0.565,�k,4.8,��
2022/11/14,17:10,0.592,0.863,0.536,1.081,0.759,0.341,0.599,0.565,�k,4.5,��
2022/11/14,17:20,0.592,0.860,0.538,1.083,0.759,0.341,0.600,0.568,�k�k��,3.9,��
2022/11/14,17:30,0.593,0.860,0.537,1.083,0.759,0.341,0.601,0.566,�k�k��,4.2,��
2022/11/14,17:40,0.592,0.859,0.536,1.083,0.759,0.339,0.601,0.566,�k�k��,3.8,��
2022/11/14,17:50,0.595,0.860,0.536,1.081,0.760,0.340,0.601,0.566,�k�k��,4.7,��
2022/11/14,18:00,0.593,0.860,0.538,1.081,0.761,0.340,0.600,0.566,�k�k��,4.6,��
2022/11/14,18:10,0.593,0.861,0.535,1.082,0.758,0.340,0.603,0.565,�k�k��,4.5,��
2022/11/14,18:20,0.593,0.860,0.537,1.083,0.760,0.341,0.600,0.566,�k��,4.3,��
2022/11/14,18:30,0.592,0.859,0.538,1.082,0.760,0.340,0.600,0.566,�k��,3.3,��
2022/11/14,18:40,0.592,0.861,0.536,1.082,0.760,0.341,0.601,0.566,�k��,3.8,��
2022/11/14,18:50,0.592,0.860,0.536,1.082,0.760,0.340,0.600,0.566,�k�k��,3.9,��
2022/11/14,19:00,0.592,0.860,0.538,1.082,0.761,0.339,0.601,0.565,�k��,4.0,��
2022/11/14,19:10,0.591,0.860,0.537,1.082,0.758,0.341,0.602,0.565,�k�k��,4.7,��
2022/11/14,19:20,0.592,0.861,0.538,1.082,0.760,0.340,0.601,0.566,�k��,4.7,��
2022/11/14,19:30,0.594,0.860,0.536,1.084,0.760,0.342,0.600,0.567,�k�k��,4.3,��
2022/11/14,19:40,0.592,0.862,0.536,1.079,0.759,0.341,0.601,0.566,�k��,5.3,��
2022/11/14,19:50,0.593,0.860,0.536,1.080,0.760,0.340,0.602,0.566,�k�k��,4.9,��
2022/11/14,20:00,0.591,0.862,0.535,1.082,0.761,0.341,0.600,0.566,�k�k��,4.5,��
2022/11/14,20:10,0.593,0.859,0.536,1.082,0.759,0.340,0.603,0.565,�k��,4.5,��
2022/11/14,20:20,0.593,0.861,0.535,1.083,0.759,0.339,0.603,0.564,�k��,5.2,��
2022/11/14,20:30,0.591,0.861,0.536,1.082,0.759,0.339,0.603,0.565,�k��,5.6,��
2022/11/14,20:40,0.592,0.858,0.537,1.083,0.760,0.339,0.603,0.565,�k��,4.6,��
2022/11/14,20:50,0.592,0.859,0.536,1.085,0.760,0.338,0.602,0.566,�k�k��,4.8,��
2022/11/14,21:00,0.594,0.861,0.535,1.082,0.760,0.338,0.602,0.567,�k��,4.8,��
2022/11/14,21:10,0.594,0.861,0.537,1.084,0.761,0.340,0.602,0.565,�k�k��,4.2,��
2022/11/14,21:20,0.593,0.858,0.537,1.082,0.759,0.340,0.603,0.564,�k�k��,4.8,��
2022/11/14,21:30,0.592,0.859,0.537,1.084,0.760,0.341,0.603,0.566,�k��,4.9,��
2022/11/14,21:40,0.591,0.860,0.538,1.083,0.761,0.340,0.601,0.566,�k�k��,5.4,��
2022/11/14,21:50,0.593,0.860,0.537,1.084,0.760,0.341,0.601,0.566,�k��,4.8,��
2022/11/14,22:00,0.593,0.860,0.536,1.083,0.760,0.340,0.604,0.566,�k�k��,4.3,��
2022/11/14,22:10,0.594,0.858,0.537,1.084,0.760,0.340,0.603,0.566,�k��,5.1,��
2022/11/14,22:20,0.593,0.860,0.536,1.083,0.760,0.341,0.603,0.565,�k��,5.5,��
2022/11/14,22:30,0.594,0.859,0.535,1.084,0.761,0.340,0.603,0.565,�k��,5.6,��
2022/11/14,22:40,0.593,0.861,0.535,1.086,0.761,0.340,0.603,0.568,�k��,6.5,��
2022/11/14,22:50,0.592,0.861,0.536,1.082,0.760,0.341,0.603,0.566,�k�k��,5.9,��
2022/11/14,23:00,0.593,0.860,0.537,1.083,0.759,0.341,0.603,0.566,�k�k��,5.5,��
2022/11/14,23:10,0.595,0.859,0.539,1.084,0.760,0.340,0.602,0.567,�k��,6.0,��
2022/11/14,23:20,0.592,0.861,0.537,1.083,0.760,0.340,0.603,0.565,�k�k��,5.5,��
2022/11/14,23:30,0.594,0.861,0.535,1.083,0.759,0.341,0.604,0.567,�k�k��,6.3,��
2022/11/14,23:40,0.592,0.859,0.537,1.086,0.759,0.341,0.604,0.566,�k��,5.8,��
2022/11/14,23:50,0.595,0.861,0.535,1.084,0.761,0.340,0.603,0.566,�k��,6.8,��
